Year,Month,Day,Hour,Minute,Value (Times are PST for temperature in C)
2018,08,09,00,00,21.40
2018,08,09,00,01,21.40
2018,08,09,00,02,21.40
2018,08,09,00,03,21.40
2018,08,09,00,04,21.30
2018,08,09,00,05,21.30
2018,08,09,00,06,21.30
2018,08,09,00,07,21.30
2018,08,09,00,08,21.30
2018,08,09,00,09,21.30
2018,08,09,00,10,21.30
2018,08,09,00,11,21.30
2018,08,09,00,12,21.30
2018,08,09,00,13,21.30
2018,08,09,00,14,21.30
2018,08,09,00,15,21.30
2018,08,09,00,16,21.30
2018,08,09,00,17,21.30
2018,08,09,00,18,21.30
2018,08,09,00,19,21.30
2018,08,09,00,20,21.30
2018,08,09,00,21,21.30
2018,08,09,00,22,21.30
2018,08,09,00,23,21.30
2018,08,09,00,24,21.30
2018,08,09,00,25,21.20
2018,08,09,00,26,21.20
2018,08,09,00,27,21.20
2018,08,09,00,28,21.20
2018,08,09,00,29,21.20
2018,08,09,00,30,21.20
2018,08,09,00,31,21.20
2018,08,09,00,32,21.20
2018,08,09,00,33,21.20
2018,08,09,00,34,21.10
2018,08,09,00,35,21.10
2018,08,09,00,36,21.10
2018,08,09,00,37,21.10
2018,08,09,00,38,21.10
2018,08,09,00,39,21.00
2018,08,09,00,40,21.00
2018,08,09,00,41,21.00
2018,08,09,00,42,20.90
2018,08,09,00,43,20.90
2018,08,09,00,44,20.90
2018,08,09,00,45,20.90
2018,08,09,00,46,20.90
2018,08,09,00,47,20.90
2018,08,09,00,48,20.90
2018,08,09,00,49,20.90
2018,08,09,00,50,20.90
2018,08,09,00,51,20.90
2018,08,09,00,52,20.90
2018,08,09,00,53,20.90
2018,08,09,00,54,20.80
2018,08,09,00,55,20.80
2018,08,09,00,56,20.80
2018,08,09,00,57,20.80
2018,08,09,00,58,20.80
2018,08,09,00,59,20.70
2018,08,09,01,00,20.70
2018,08,09,01,01,20.70
2018,08,09,01,02,20.70
2018,08,09,01,03,20.70
2018,08,09,01,04,20.70
2018,08,09,01,05,20.70
2018,08,09,01,06,20.70
2018,08,09,01,07,20.70
2018,08,09,01,08,20.70
2018,08,09,01,09,20.70
2018,08,09,01,10,20.70
2018,08,09,01,11,20.70
2018,08,09,01,12,20.70
2018,08,09,01,13,20.60
2018,08,09,01,14,20.60
2018,08,09,01,15,20.60
2018,08,09,01,16,20.60
2018,08,09,01,17,20.50
2018,08,09,01,18,20.50
2018,08,09,01,19,20.50
2018,08,09,01,20,20.50
2018,08,09,01,21,20.40
2018,08,09,01,22,20.40
2018,08,09,01,23,20.40
2018,08,09,01,24,20.40
2018,08,09,01,25,20.40
2018,08,09,01,26,20.40
2018,08,09,01,27,20.40
2018,08,09,01,28,20.40
2018,08,09,01,29,20.40
2018,08,09,01,30,20.30
2018,08,09,01,31,20.30
2018,08,09,01,32,20.30
2018,08,09,01,33,20.30
2018,08,09,01,34,20.30
2018,08,09,01,35,20.30
2018,08,09,01,36,20.30
2018,08,09,01,37,20.30
2018,08,09,01,38,20.30
2018,08,09,01,39,20.30
2018,08,09,01,40,20.30
2018,08,09,01,41,20.20
2018,08,09,01,42,20.20
2018,08,09,01,43,20.20
2018,08,09,01,44,20.20
2018,08,09,01,45,20.20
2018,08,09,01,46,20.20
2018,08,09,01,47,20.20
2018,08,09,01,48,20.20
2018,08,09,01,49,20.20
2018,08,09,01,50,20.10
2018,08,09,01,51,20.10
2018,08,09,01,52,20.10
2018,08,09,01,53,20.10
2018,08,09,01,54,20.10
2018,08,09,01,55,20.10
2018,08,09,01,56,20.10
2018,08,09,01,57,20.10
2018,08,09,01,58,20.10
2018,08,09,01,59,20.10
2018,08,09,02,00,20.10
2018,08,09,02,01,20.10
2018,08,09,02,02,20.10
2018,08,09,02,03,20.10
2018,08,09,02,04,20.10
2018,08,09,02,05,20.10
2018,08,09,02,06,20.00
2018,08,09,02,07,20.00
2018,08,09,02,08,20.00
2018,08,09,02,09,20.00
2018,08,09,02,10,19.90
2018,08,09,02,11,19.90
2018,08,09,02,12,19.90
2018,08,09,02,13,19.90
2018,08,09,02,14,19.90
2018,08,09,02,15,19.80
2018,08,09,02,16,19.80
2018,08,09,02,17,19.80
2018,08,09,02,18,19.80
2018,08,09,02,19,19.70
2018,08,09,02,20,19.70
2018,08,09,02,21,19.70
2018,08,09,02,22,19.70
2018,08,09,02,23,19.60
2018,08,09,02,24,19.60
2018,08,09,02,25,19.60
2018,08,09,02,26,19.50
2018,08,09,02,27,19.50
2018,08,09,02,28,19.50
2018,08,09,02,29,19.40
2018,08,09,02,30,19.40
2018,08,09,02,31,19.40
2018,08,09,02,32,19.40
2018,08,09,02,33,19.40
2018,08,09,02,34,19.40
2018,08,09,02,35,19.30
2018,08,09,02,36,19.30
2018,08,09,02,37,19.30
2018,08,09,02,38,19.30
2018,08,09,02,39,19.30
2018,08,09,02,40,19.30
2018,08,09,02,41,19.30
2018,08,09,02,42,19.30
2018,08,09,02,43,19.30
2018,08,09,02,44,19.30
2018,08,09,02,45,19.20
2018,08,09,02,46,19.20
2018,08,09,02,47,19.20
2018,08,09,02,48,19.20
2018,08,09,02,49,19.10
2018,08,09,02,50,19.10
2018,08,09,02,51,19.10
2018,08,09,02,52,19.00
2018,08,09,02,53,19.00
2018,08,09,02,54,19.00
2018,08,09,02,55,19.00
2018,08,09,02,56,18.90
2018,08,09,02,57,18.90
2018,08,09,02,58,18.90
2018,08,09,02,59,18.90
2018,08,09,03,00,18.90
2018,08,09,03,01,18.80
2018,08,09,03,02,18.80
2018,08,09,03,03,18.80
2018,08,09,03,04,18.80
2018,08,09,03,05,18.80
2018,08,09,03,06,18.80
2018,08,09,03,07,18.80
2018,08,09,03,08,18.80
2018,08,09,03,09,18.80
2018,08,09,03,10,18.80
2018,08,09,03,11,18.80
2018,08,09,03,12,18.70
2018,08,09,03,13,18.70
2018,08,09,03,14,18.70
2018,08,09,03,15,18.70
2018,08,09,03,16,18.70
2018,08,09,03,17,18.70
2018,08,09,03,18,18.60
2018,08,09,03,19,18.60
2018,08,09,03,20,18.60
2018,08,09,03,21,18.60
2018,08,09,03,22,18.60
2018,08,09,03,23,18.60
2018,08,09,03,24,18.60
2018,08,09,03,25,18.60
2018,08,09,03,26,18.60
2018,08,09,03,27,18.60
2018,08,09,03,28,18.60
2018,08,09,03,29,18.60
2018,08,09,03,30,18.60
2018,08,09,03,31,18.60
2018,08,09,03,32,18.60
2018,08,09,03,33,18.60
2018,08,09,03,34,18.60
2018,08,09,03,35,18.60
2018,08,09,03,36,18.60
2018,08,09,03,37,18.60
2018,08,09,03,38,18.60
2018,08,09,03,39,18.60
2018,08,09,03,40,18.60
2018,08,09,03,41,18.60
2018,08,09,03,42,18.60
2018,08,09,03,43,18.70
2018,08,09,03,44,18.70
2018,08,09,03,45,18.60
2018,08,09,03,46,18.70
2018,08,09,03,47,18.70
2018,08,09,03,48,18.70
2018,08,09,03,49,18.60
2018,08,09,03,50,18.70
2018,08,09,03,51,18.70
2018,08,09,03,52,18.70
2018,08,09,03,53,18.70
2018,08,09,03,54,18.70
2018,08,09,03,55,18.70
2018,08,09,03,56,18.60
2018,08,09,03,57,18.60
2018,08,09,03,58,18.60
2018,08,09,03,59,18.60
2018,08,09,04,00,18.60
2018,08,09,04,01,18.60
2018,08,09,04,02,18.60
2018,08,09,04,03,18.60
2018,08,09,04,04,18.70
2018,08,09,04,05,18.70
2018,08,09,04,06,18.70
2018,08,09,04,07,18.70
2018,08,09,04,08,18.70
2018,08,09,04,09,18.70
2018,08,09,04,10,18.70
2018,08,09,04,11,18.70
2018,08,09,04,12,18.60
2018,08,09,04,13,18.60
2018,08,09,04,14,18.60
2018,08,09,04,15,18.60
2018,08,09,04,16,18.60
2018,08,09,04,17,18.60
2018,08,09,04,18,18.50
2018,08,09,04,19,18.50
2018,08,09,04,20,18.50
2018,08,09,04,21,18.40
2018,08,09,04,22,18.40
2018,08,09,04,23,18.40
2018,08,09,04,24,18.40
2018,08,09,04,25,18.40
2018,08,09,04,26,18.40
2018,08,09,04,27,18.40
2018,08,09,04,28,18.40
2018,08,09,04,29,18.40
2018,08,09,04,30,18.40
2018,08,09,04,31,18.40
2018,08,09,04,32,18.50
2018,08,09,04,33,18.50
2018,08,09,04,34,18.50
2018,08,09,04,35,18.50
2018,08,09,04,36,18.50
2018,08,09,04,37,18.50
2018,08,09,04,38,18.50
2018,08,09,04,39,18.40
2018,08,09,04,40,18.40
2018,08,09,04,41,18.40
2018,08,09,04,42,18.40
2018,08,09,04,43,18.40
2018,08,09,04,44,18.40
2018,08,09,04,45,18.30
2018,08,09,04,46,18.30
2018,08,09,04,47,18.30
2018,08,09,04,48,18.30
2018,08,09,04,49,18.20
2018,08,09,04,50,18.20
2018,08,09,04,51,18.20
2018,08,09,04,52,18.20
2018,08,09,04,53,18.10
2018,08,09,04,54,18.10
2018,08,09,04,55,18.10
2018,08,09,04,56,18.10
2018,08,09,04,57,18.00
2018,08,09,04,58,18.00
2018,08,09,04,59,18.00
2018,08,09,05,00,17.90
2018,08,09,05,01,17.90
2018,08,09,05,02,17.90
2018,08,09,05,03,17.90
2018,08,09,05,04,17.90
2018,08,09,05,05,17.80
2018,08,09,05,06,17.80
2018,08,09,05,07,17.80
2018,08,09,05,08,17.80
2018,08,09,05,09,17.80
2018,08,09,05,10,17.80
2018,08,09,05,11,17.70
2018,08,09,05,12,17.70
2018,08,09,05,13,17.70
2018,08,09,05,14,17.70
2018,08,09,05,15,17.70
2018,08,09,05,16,17.60
2018,08,09,05,17,17.60
2018,08,09,05,18,17.60
2018,08,09,05,19,17.60
2018,08,09,05,20,17.50
2018,08,09,05,21,17.50
2018,08,09,05,22,17.50
2018,08,09,05,23,17.40
2018,08,09,05,24,17.40
2018,08,09,05,25,17.40
2018,08,09,05,26,17.40
2018,08,09,05,27,17.30
2018,08,09,05,28,17.30
2018,08,09,05,29,17.30
2018,08,09,05,30,17.30
2018,08,09,05,31,17.30
2018,08,09,05,32,17.20
2018,08,09,05,33,17.20
2018,08,09,05,34,17.20
2018,08,09,05,35,17.20
2018,08,09,05,36,17.20
2018,08,09,05,37,17.10
2018,08,09,05,38,17.10
2018,08,09,05,39,17.10
2018,08,09,05,40,17.10
2018,08,09,05,41,17.10
2018,08,09,05,42,17.00
2018,08,09,05,43,17.00
2018,08,09,05,44,17.00
2018,08,09,05,45,17.00
2018,08,09,05,46,17.00
2018,08,09,05,47,16.90
2018,08,09,05,48,16.90
2018,08,09,05,49,16.90
2018,08,09,05,50,16.90
2018,08,09,05,51,16.80
2018,08,09,05,52,16.80
2018,08,09,05,53,16.80
2018,08,09,05,54,16.80
2018,08,09,05,55,16.80
2018,08,09,05,56,16.70
2018,08,09,05,57,16.70
2018,08,09,05,58,16.70
2018,08,09,05,59,16.70
2018,08,09,06,00,16.70
2018,08,09,06,01,16.70
2018,08,09,06,02,16.60
2018,08,09,06,03,16.60
2018,08,09,06,04,16.60
2018,08,09,06,05,16.60
2018,08,09,06,06,16.60
2018,08,09,06,07,16.60
2018,08,09,06,08,16.60
2018,08,09,06,09,16.60
2018,08,09,06,10,16.50
2018,08,09,06,11,16.50
2018,08,09,06,12,16.50
2018,08,09,06,13,16.50
2018,08,09,06,14,16.50
2018,08,09,06,15,16.40
2018,08,09,06,16,16.40
2018,08,09,06,17,16.40
2018,08,09,06,18,16.40
2018,08,09,06,19,16.40
2018,08,09,06,20,16.40
2018,08,09,06,21,16.40
2018,08,09,06,22,16.30
2018,08,09,06,23,16.30
2018,08,09,06,24,16.30
2018,08,09,06,25,16.30
2018,08,09,06,26,16.30
2018,08,09,06,27,16.30
2018,08,09,06,28,16.30
2018,08,09,06,29,16.30
2018,08,09,06,30,16.30
2018,08,09,06,31,16.30
2018,08,09,06,32,16.30
2018,08,09,06,33,16.30
2018,08,09,06,34,16.30
2018,08,09,06,35,16.30
2018,08,09,06,36,16.30
2018,08,09,06,37,16.30
2018,08,09,06,38,16.30
2018,08,09,06,39,16.30
2018,08,09,06,40,16.30
2018,08,09,06,41,16.30
2018,08,09,06,42,16.30
2018,08,09,06,43,16.30
2018,08,09,06,44,16.30
2018,08,09,06,45,16.30
2018,08,09,06,46,16.30
2018,08,09,06,47,16.30
2018,08,09,06,48,16.30
2018,08,09,06,49,16.30
2018,08,09,06,50,16.30
2018,08,09,06,51,16.20
2018,08,09,06,52,16.30
2018,08,09,06,53,16.30
2018,08,09,06,54,16.30
2018,08,09,06,55,16.30
2018,08,09,06,56,16.30
2018,08,09,06,57,16.30
2018,08,09,06,58,16.30
2018,08,09,06,59,16.30
2018,08,09,07,00,16.30
2018,08,09,07,01,16.30
2018,08,09,07,02,16.30
2018,08,09,07,03,16.30
2018,08,09,07,04,16.30
2018,08,09,07,05,16.30
2018,08,09,07,06,16.30
2018,08,09,07,07,16.30
2018,08,09,07,08,16.30
2018,08,09,07,09,16.30
2018,08,09,07,10,16.30
2018,08,09,07,11,16.30
2018,08,09,07,12,16.40
2018,08,09,07,13,16.40
2018,08,09,07,14,16.40
2018,08,09,07,15,16.40
2018,08,09,07,16,16.40
2018,08,09,07,17,16.40
2018,08,09,07,18,16.40
2018,08,09,07,19,16.40
2018,08,09,07,20,16.50
2018,08,09,07,21,16.50
2018,08,09,07,22,16.50
2018,08,09,07,23,16.60
2018,08,09,07,24,16.60
2018,08,09,07,25,16.60
2018,08,09,07,26,16.60
2018,08,09,07,27,16.60
2018,08,09,07,28,16.60
2018,08,09,07,29,16.60
2018,08,09,07,30,16.60
2018,08,09,07,31,16.70
2018,08,09,07,32,16.70
2018,08,09,07,33,16.70
2018,08,09,07,34,16.70
2018,08,09,07,35,16.70
2018,08,09,07,36,16.70
2018,08,09,07,37,16.80
2018,08,09,07,38,16.80
2018,08,09,07,39,16.80
2018,08,09,07,40,16.80
2018,08,09,07,41,16.80
2018,08,09,07,42,16.90
2018,08,09,07,43,16.90
2018,08,09,07,44,16.90
2018,08,09,07,45,16.90
2018,08,09,07,46,17.00
2018,08,09,07,47,17.00
2018,08,09,07,48,17.10
2018,08,09,07,49,17.10
2018,08,09,07,50,17.20
2018,08,09,07,51,17.20
2018,08,09,07,52,17.20
2018,08,09,07,53,17.30
2018,08,09,07,54,17.30
2018,08,09,07,55,17.40
2018,08,09,07,56,17.40
2018,08,09,07,57,17.50
2018,08,09,07,58,17.50
2018,08,09,07,59,17.60
2018,08,09,08,00,17.60
2018,08,09,08,01,17.70
2018,08,09,08,02,17.70
2018,08,09,08,03,17.80
2018,08,09,08,04,17.90
2018,08,09,08,05,17.90
2018,08,09,08,06,18.00
2018,08,09,08,07,18.00
2018,08,09,08,08,18.10
2018,08,09,08,09,18.20
2018,08,09,08,10,18.20
2018,08,09,08,11,18.30
2018,08,09,08,12,18.30
2018,08,09,08,13,18.40
2018,08,09,08,14,18.50
2018,08,09,08,15,18.50
2018,08,09,08,16,18.60
2018,08,09,08,17,18.70
2018,08,09,08,18,18.70
2018,08,09,08,19,18.80
2018,08,09,08,20,18.90
2018,08,09,08,21,19.00
2018,08,09,08,22,19.10
2018,08,09,08,23,19.20
2018,08,09,08,24,19.30
2018,08,09,08,25,19.30
2018,08,09,08,26,19.40
2018,08,09,08,27,19.50
2018,08,09,08,28,19.60
2018,08,09,08,29,19.80
2018,08,09,08,30,19.90
2018,08,09,08,31,20.10
2018,08,09,08,32,20.30
2018,08,09,08,33,20.50
2018,08,09,08,34,20.70
2018,08,09,08,35,20.90
2018,08,09,08,36,21.10
2018,08,09,08,37,21.30
2018,08,09,08,38,21.50
2018,08,09,08,39,21.60
2018,08,09,08,40,21.90
2018,08,09,08,41,22.00
2018,08,09,08,42,22.20
2018,08,09,08,43,22.30
2018,08,09,08,44,22.50
2018,08,09,08,45,22.70
2018,08,09,08,46,22.80
2018,08,09,08,47,23.00
2018,08,09,08,48,23.10
2018,08,09,08,49,23.20
2018,08,09,08,50,23.40
2018,08,09,08,51,23.50
2018,08,09,08,52,23.60
2018,08,09,08,53,23.80
2018,08,09,08,54,23.90
2018,08,09,08,55,24.00
2018,08,09,08,56,24.20
2018,08,09,08,57,24.30
2018,08,09,08,58,24.40
2018,08,09,08,59,24.50
2018,08,09,09,00,24.70
2018,08,09,09,01,24.80
2018,08,09,09,02,24.90
2018,08,09,09,03,25.00
2018,08,09,09,04,25.20
2018,08,09,09,05,25.20
2018,08,09,09,06,25.30
2018,08,09,09,07,25.40
2018,08,09,09,08,25.50
2018,08,09,09,09,25.50
2018,08,09,09,10,25.60
2018,08,09,09,11,25.70
2018,08,09,09,12,25.70
2018,08,09,09,13,25.80
2018,08,09,09,14,25.80
2018,08,09,09,15,25.90
2018,08,09,09,16,26.00
2018,08,09,09,17,26.10
2018,08,09,09,18,26.10
2018,08,09,09,19,26.20
2018,08,09,09,20,26.20
2018,08,09,09,21,26.20
2018,08,09,09,22,26.20
2018,08,09,09,23,26.20
2018,08,09,09,24,26.20
2018,08,09,09,25,26.20
2018,08,09,09,26,26.20
2018,08,09,09,27,26.30
2018,08,09,09,28,26.30
2018,08,09,09,29,26.40
2018,08,09,09,30,26.50
2018,08,09,09,31,26.50
2018,08,09,09,32,26.50
2018,08,09,09,33,26.60
2018,08,09,09,34,26.60
2018,08,09,09,35,26.60
2018,08,09,09,36,26.70
2018,08,09,09,37,26.70
2018,08,09,09,38,26.70
2018,08,09,09,39,26.70
2018,08,09,09,40,26.70
2018,08,09,09,41,26.80
2018,08,09,09,42,26.90
2018,08,09,09,43,27.00
2018,08,09,09,44,27.10
2018,08,09,09,45,27.20
2018,08,09,09,46,27.30
2018,08,09,09,47,27.40
2018,08,09,09,48,27.40
2018,08,09,09,49,27.50
2018,08,09,09,50,27.50
2018,08,09,09,51,27.50
2018,08,09,09,52,27.60
2018,08,09,09,53,27.60
2018,08,09,09,54,27.60
2018,08,09,09,55,27.70
2018,08,09,09,56,27.70
2018,08,09,09,57,27.70
2018,08,09,09,58,27.70
2018,08,09,09,59,27.80
2018,08,09,10,00,27.80
2018,08,09,10,01,27.80
2018,08,09,10,02,27.90
2018,08,09,10,03,28.00
2018,08,09,10,04,28.10
2018,08,09,10,05,28.20
2018,08,09,10,06,28.30
2018,08,09,10,07,28.30
2018,08,09,10,08,28.40
2018,08,09,10,09,28.50
2018,08,09,10,10,28.60
2018,08,09,10,11,28.70
2018,08,09,10,12,28.80
2018,08,09,10,13,28.90
2018,08,09,10,14,28.90
2018,08,09,10,15,29.00
2018,08,09,10,16,28.90
2018,08,09,10,17,28.90
2018,08,09,10,18,28.80
2018,08,09,10,19,28.60
2018,08,09,10,20,28.60
2018,08,09,10,21,28.50
2018,08,09,10,22,28.40
2018,08,09,10,23,28.40
2018,08,09,10,24,28.30
2018,08,09,10,25,28.30
2018,08,09,10,26,28.20
2018,08,09,10,27,28.10
2018,08,09,10,28,28.10
2018,08,09,10,29,28.10
2018,08,09,10,30,28.10
2018,08,09,10,31,28.10
2018,08,09,10,32,28.20
2018,08,09,10,33,28.20
2018,08,09,10,34,28.30
2018,08,09,10,35,28.30
2018,08,09,10,36,28.30
2018,08,09,10,37,28.30
2018,08,09,10,38,28.30
2018,08,09,10,39,28.40
2018,08,09,10,40,28.40
2018,08,09,10,41,28.40
2018,08,09,10,42,28.40
2018,08,09,10,43,28.40
2018,08,09,10,44,28.40
2018,08,09,10,45,28.40
2018,08,09,10,46,28.30
2018,08,09,10,47,28.20
2018,08,09,10,48,28.20
2018,08,09,10,49,28.20
2018,08,09,10,50,28.20
2018,08,09,10,51,28.20
2018,08,09,10,52,28.20
2018,08,09,10,53,28.10
2018,08,09,10,54,28.10
2018,08,09,10,55,28.10
2018,08,09,10,56,28.00
2018,08,09,10,57,28.00
2018,08,09,10,58,27.90
2018,08,09,10,59,27.80
2018,08,09,11,00,27.70
2018,08,09,11,01,27.70
2018,08,09,11,02,27.80
2018,08,09,11,03,27.80
2018,08,09,11,04,27.80
2018,08,09,11,05,27.80
2018,08,09,11,06,27.90
2018,08,09,11,07,27.90
2018,08,09,11,08,27.90
2018,08,09,11,09,27.90
2018,08,09,11,10,27.80
2018,08,09,11,11,27.90
2018,08,09,11,12,27.90
2018,08,09,11,13,28.00
2018,08,09,11,14,28.10
2018,08,09,11,15,28.20
2018,08,09,11,16,28.20
2018,08,09,11,17,28.20
2018,08,09,11,18,28.30
2018,08,09,11,19,28.30
2018,08,09,11,20,28.30
2018,08,09,11,21,28.30
2018,08,09,11,22,28.30
2018,08,09,11,23,28.30
2018,08,09,11,24,28.30
2018,08,09,11,25,28.30
2018,08,09,11,26,28.40
2018,08,09,11,27,28.50
2018,08,09,11,28,28.60
2018,08,09,11,29,28.80
2018,08,09,11,30,28.90
2018,08,09,11,31,28.90
2018,08,09,11,32,28.90
2018,08,09,11,33,29.00
2018,08,09,11,34,28.90
2018,08,09,11,35,28.90
2018,08,09,11,36,28.80
2018,08,09,11,37,28.90
2018,08,09,11,38,29.00
2018,08,09,11,39,29.10
2018,08,09,11,40,29.10
2018,08,09,11,41,29.20
2018,08,09,11,42,29.40
2018,08,09,11,43,29.50
2018,08,09,11,44,29.60
2018,08,09,11,45,29.60
2018,08,09,11,46,29.70
2018,08,09,11,47,29.80
2018,08,09,11,48,29.80
2018,08,09,11,49,29.70
2018,08,09,11,50,29.60
2018,08,09,11,51,29.50
2018,08,09,11,52,29.50
2018,08,09,11,53,29.50
2018,08,09,11,54,29.60
2018,08,09,11,55,29.70
2018,08,09,11,56,29.70
2018,08,09,11,57,29.70
2018,08,09,11,58,29.70
2018,08,09,11,59,29.60
2018,08,09,12,00,29.60
2018,08,09,12,01,29.60
2018,08,09,12,02,29.50
2018,08,09,12,03,29.50
2018,08,09,12,04,29.60
2018,08,09,12,05,29.70
2018,08,09,12,06,29.80
2018,08,09,12,07,29.80
2018,08,09,12,08,29.80
2018,08,09,12,09,29.80
2018,08,09,12,10,29.80
2018,08,09,12,11,29.90
2018,08,09,12,12,30.00
2018,08,09,12,13,30.10
2018,08,09,12,14,30.20
2018,08,09,12,15,30.20
2018,08,09,12,16,30.20
2018,08,09,12,17,30.20
2018,08,09,12,18,30.20
2018,08,09,12,19,30.30
2018,08,09,12,20,30.40
2018,08,09,12,21,30.50
2018,08,09,12,22,30.60
2018,08,09,12,23,30.70
2018,08,09,12,24,30.70
2018,08,09,12,25,30.70
2018,08,09,12,26,30.80
2018,08,09,12,27,30.80
2018,08,09,12,28,30.70
2018,08,09,12,29,30.60
2018,08,09,12,30,30.50
2018,08,09,12,31,30.50
2018,08,09,12,32,30.50
2018,08,09,12,33,30.40
2018,08,09,12,34,30.30
2018,08,09,12,35,30.20
2018,08,09,12,36,30.10
2018,08,09,12,37,30.00
2018,08,09,12,38,29.90
2018,08,09,12,39,29.80
2018,08,09,12,40,29.70
2018,08,09,12,41,29.80
2018,08,09,12,42,29.80
2018,08,09,12,43,29.90
2018,08,09,12,44,30.00
2018,08,09,12,45,30.10
2018,08,09,12,46,30.10
2018,08,09,12,47,30.20
2018,08,09,12,48,30.20
2018,08,09,12,49,30.20
2018,08,09,12,50,30.20
2018,08,09,12,51,30.20
2018,08,09,12,52,30.20
2018,08,09,12,53,30.20
2018,08,09,12,54,30.30
2018,08,09,12,55,30.30
2018,08,09,12,56,30.40
2018,08,09,12,57,30.40
2018,08,09,12,58,30.50
2018,08,09,12,59,30.60
2018,08,09,13,00,30.60
2018,08,09,13,01,30.60
2018,08,09,13,02,30.50
2018,08,09,13,03,30.50
2018,08,09,13,04,30.60
2018,08,09,13,05,30.70
2018,08,09,13,06,30.80
2018,08,09,13,07,30.80
2018,08,09,13,08,30.70
2018,08,09,13,09,30.60
2018,08,09,13,10,30.40
2018,08,09,13,11,30.30
2018,08,09,13,12,30.30
2018,08,09,13,13,30.30
2018,08,09,13,14,30.30
2018,08,09,13,15,30.30
2018,08,09,13,16,30.30
2018,08,09,13,17,30.30
2018,08,09,13,18,30.20
2018,08,09,13,19,30.20
2018,08,09,13,20,30.30
2018,08,09,13,21,30.40
2018,08,09,13,22,30.40
2018,08,09,13,23,30.60
2018,08,09,13,24,30.70
2018,08,09,13,25,30.80
2018,08,09,13,26,30.80
2018,08,09,13,27,30.80
2018,08,09,13,28,30.90
2018,08,09,13,29,30.90
2018,08,09,13,30,31.00
2018,08,09,13,31,31.10
2018,08,09,13,32,31.20
2018,08,09,13,33,31.20
2018,08,09,13,34,31.30
2018,08,09,13,35,31.30
2018,08,09,13,36,31.40
2018,08,09,13,37,31.40
2018,08,09,13,38,31.50
2018,08,09,13,39,31.50
2018,08,09,13,40,31.50
2018,08,09,13,41,31.50
2018,08,09,13,42,31.50
2018,08,09,13,43,31.60
2018,08,09,13,44,31.60
2018,08,09,13,45,31.70
2018,08,09,13,46,31.70
2018,08,09,13,47,31.60
2018,08,09,13,48,31.40
2018,08,09,13,49,31.40
2018,08,09,13,50,31.40
2018,08,09,13,51,31.50
2018,08,09,13,52,31.50
2018,08,09,13,53,31.50
2018,08,09,13,54,31.60
2018,08,09,13,55,31.60
2018,08,09,13,56,31.60
2018,08,09,13,57,31.70
2018,08,09,13,58,31.80
2018,08,09,13,59,31.90
2018,08,09,14,00,31.90
2018,08,09,14,01,31.90
2018,08,09,14,02,31.90
2018,08,09,14,03,31.80
2018,08,09,14,04,31.70
2018,08,09,14,05,31.60
2018,08,09,14,06,31.40
2018,08,09,14,07,31.20
2018,08,09,14,08,31.10
2018,08,09,14,09,31.00
2018,08,09,14,10,30.90
2018,08,09,14,11,30.90
2018,08,09,14,12,30.90
2018,08,09,14,13,30.90
2018,08,09,14,14,30.80
2018,08,09,14,15,30.90
2018,08,09,14,16,30.90
2018,08,09,14,17,31.00
2018,08,09,14,18,31.00
2018,08,09,14,19,31.00
2018,08,09,14,20,31.00
2018,08,09,14,21,30.80
2018,08,09,14,22,30.70
2018,08,09,14,23,30.50
2018,08,09,14,24,30.40
2018,08,09,14,25,30.30
2018,08,09,14,26,30.30
2018,08,09,14,27,30.40
2018,08,09,14,28,30.50
2018,08,09,14,29,30.50
2018,08,09,14,30,30.60
2018,08,09,14,31,30.80
2018,08,09,14,32,30.90
2018,08,09,14,33,31.10
2018,08,09,14,34,31.10
2018,08,09,14,35,31.10
2018,08,09,14,36,31.10
2018,08,09,14,37,31.10
2018,08,09,14,38,31.10
2018,08,09,14,39,31.10
2018,08,09,14,40,31.00
2018,08,09,14,41,31.00
2018,08,09,14,42,31.00
2018,08,09,14,43,31.00
2018,08,09,14,44,31.00
2018,08,09,14,45,31.00
2018,08,09,14,46,31.00
2018,08,09,14,47,31.00
2018,08,09,14,48,31.00
2018,08,09,14,49,30.90
2018,08,09,14,50,30.90
2018,08,09,14,51,30.90
2018,08,09,14,52,31.00
2018,08,09,14,53,31.00
2018,08,09,14,54,31.00
2018,08,09,14,55,31.00
2018,08,09,14,56,31.00
2018,08,09,14,57,31.00
2018,08,09,14,58,31.00
2018,08,09,14,59,31.00
2018,08,09,15,00,31.00
2018,08,09,15,01,30.90
2018,08,09,15,02,30.90
2018,08,09,15,03,30.90
2018,08,09,15,04,30.90
2018,08,09,15,05,30.90
2018,08,09,15,06,30.90
2018,08,09,15,07,30.90
2018,08,09,15,08,31.00
2018,08,09,15,09,31.00
2018,08,09,15,10,31.00
2018,08,09,15,11,30.90
2018,08,09,15,12,30.90
2018,08,09,15,13,31.00
2018,08,09,15,14,31.00
2018,08,09,15,15,31.00
2018,08,09,15,16,31.00
2018,08,09,15,17,31.00
2018,08,09,15,18,31.00
2018,08,09,15,19,31.00
2018,08,09,15,20,31.00
2018,08,09,15,21,31.00
2018,08,09,15,22,30.90
2018,08,09,15,23,30.90
2018,08,09,15,24,30.90
2018,08,09,15,25,30.90
2018,08,09,15,26,30.90
2018,08,09,15,27,30.90
2018,08,09,15,28,30.90
2018,08,09,15,29,30.90
2018,08,09,15,30,30.90
2018,08,09,15,31,30.90
2018,08,09,15,32,30.90
2018,08,09,15,33,31.00
2018,08,09,15,34,31.00
2018,08,09,15,35,30.90
2018,08,09,15,36,30.90
2018,08,09,15,37,30.90
2018,08,09,15,38,30.90
2018,08,09,15,39,30.80
2018,08,09,15,40,30.80
2018,08,09,15,41,30.80
2018,08,09,15,42,30.80
2018,08,09,15,43,30.70
2018,08,09,15,44,30.70
2018,08,09,15,45,30.70
2018,08,09,15,46,30.70
2018,08,09,15,47,30.70
2018,08,09,15,48,30.70
2018,08,09,15,49,30.70
2018,08,09,15,50,30.70
2018,08,09,15,51,30.80
2018,08,09,15,52,30.80
2018,08,09,15,53,30.80
2018,08,09,15,54,30.80
2018,08,09,15,55,30.80
2018,08,09,15,56,30.80
2018,08,09,15,57,30.90
2018,08,09,15,58,30.90
2018,08,09,15,59,30.90
2018,08,09,16,00,30.90
2018,08,09,16,01,30.90
2018,08,09,16,02,30.90
2018,08,09,16,03,30.90
2018,08,09,16,04,30.90
2018,08,09,16,05,30.90
2018,08,09,16,06,30.90
2018,08,09,16,07,30.90
2018,08,09,16,08,30.90
2018,08,09,16,09,30.80
2018,08,09,16,10,30.80
2018,08,09,16,11,30.80
2018,08,09,16,12,30.80
2018,08,09,16,13,30.80
2018,08,09,16,14,30.90
2018,08,09,16,15,30.90
2018,08,09,16,16,30.90
2018,08,09,16,17,30.90
2018,08,09,16,18,30.90
2018,08,09,16,19,30.90
2018,08,09,16,20,30.90
2018,08,09,16,21,30.90
2018,08,09,16,22,31.00
2018,08,09,16,23,31.00
2018,08,09,16,24,31.00
2018,08,09,16,25,31.00
2018,08,09,16,26,31.10
2018,08,09,16,27,31.10
2018,08,09,16,28,31.10
2018,08,09,16,29,31.00
2018,08,09,16,30,31.00
2018,08,09,16,31,31.00
2018,08,09,16,32,31.10
2018,08,09,16,33,31.10
2018,08,09,16,34,31.10
2018,08,09,16,35,31.10
2018,08,09,16,36,31.10
2018,08,09,16,37,31.20
2018,08,09,16,38,31.20
2018,08,09,16,39,31.20
2018,08,09,16,40,31.20
2018,08,09,16,41,31.20
2018,08,09,16,42,31.20
2018,08,09,16,43,31.20
2018,08,09,16,44,31.20
2018,08,09,16,45,31.20
2018,08,09,16,46,31.20
2018,08,09,16,47,31.20
2018,08,09,16,48,31.20
2018,08,09,16,49,31.20
2018,08,09,16,50,31.20
2018,08,09,16,51,31.20
2018,08,09,16,52,31.20
2018,08,09,16,53,31.20
2018,08,09,16,54,31.20
2018,08,09,16,55,31.20
2018,08,09,16,56,31.30
2018,08,09,16,57,31.30
2018,08,09,16,58,31.30
2018,08,09,16,59,31.30
2018,08,09,17,00,31.30
2018,08,09,17,01,31.30
2018,08,09,17,02,31.30
2018,08,09,17,03,31.30
2018,08,09,17,04,31.30
2018,08,09,17,05,31.30
2018,08,09,17,06,31.30
2018,08,09,17,07,31.30
2018,08,09,17,08,31.30
2018,08,09,17,09,31.40
2018,08,09,17,10,31.40
2018,08,09,17,11,31.40
2018,08,09,17,12,31.40
2018,08,09,17,13,31.40
2018,08,09,17,14,31.40
2018,08,09,17,15,31.40
2018,08,09,17,16,31.40
2018,08,09,17,17,31.40
2018,08,09,17,18,31.50
2018,08,09,17,19,31.50